Mosby, MO

12:02 AM CDT on May 24, 2017 (GMT -0500)
Clay County Regional

Weather History for KGPH - March, 2013

Change the Weather History Date:

Monday, March 11, 2013

  Actual Average (KMKC) Record (KMKC)
Temperature  
Mean Temperature 30 °F -  
Max Temperature 33 °F 49 °F 80 °F (2014)
Min Temperature 28 °F 30 °F 7 °F (1998)
Degree Days  
Heating Degree Days 34    
Moisture  
Dew Point 25 °F    
Average Humidity 79    
Maximum Humidity 100    
Minimum Humidity 65    
Precipitation  
Precipitation 0.00 in - - ()
Sea Level Pressure  
Sea Level Pressure 29.91 in    
Wind  
Wind Speed 11 mph (WNW)    
Max Wind Speed 17 mph    
Max Gust Speed 25 mph    
Visibility 10 miles    
Events Snow    
Averages and records for this station are not official NWS values.
T = Trace of Precipitation, MM = Missing Value Source: NWS Daily Summary

Daily Weather History Graph

Daily Weather History Graph

Search for Another Location

Airport or City:

Trip Planner

Search our weather history database for the weather conditions in past years. The results will help you decide how hot, cold, wet, or windy it might be!

Date:

Astronomy

Mar. 11, 2013 Rise Set
Actual Time 7:34 AM CDT 7:20 PM CDT
Civil Twilight 7:07 AM CDT 7:47 PM CDT
Nautical Twilight 6:36 AM CDT 8:18 PM CDT
Astronomical Twilight 6:05 AM CDT 8:49 PM CDT
Moon 7:08 AM CDT (3/11) 7:33 PM CDT (3/11)
Length of Visible Light 12h 39m
Length of Day
11h 45m
Waning Crescent, 0% of the Moon is Illuminated
Mar 11
Waning Crescent
Mar 11
New
Mar 19
First Quarter
Mar 27
Full
Apr 2
Last Quarter

Hourly Weather History & Observations

Time (CDT) Temp. Windchill Dew Point Humidity Pressure Visibility Wind Dir Wind Speed Gust Speed Precip Events Conditions
12:15 AM 30.2 °F 20.8 °F 28.4 °F 93% 29.86 in 10.0 mi WNW 11.5 mph 18.4 mph N/A   Overcast
12:35 AM 30.2 °F 20.2 °F 28.4 °F 93% 29.86 in 10.0 mi WNW 12.7 mph 17.3 mph N/A   Overcast
12:55 AM 30.2 °F 20.2 °F 28.4 °F 93% 29.87 in 10.0 mi WNW 12.7 mph 17.3 mph N/A   Overcast
1:15 AM 30.2 °F 20.8 °F 28.4 °F 93% 29.86 in 10.0 mi WNW 11.5 mph - N/A   Overcast
1:35 AM 30.2 °F 21.3 °F 28.4 °F 93% 29.86 in 10.0 mi WNW 10.4 mph 19.6 mph N/A   Overcast
2:15 AM 30.2 °F 21.3 °F 26.6 °F 86% 29.85 in 10.0 mi WNW 10.4 mph - N/A   Overcast
2:55 AM 30.2 °F 18.9 °F 26.6 °F 86% 29.85 in 10.0 mi WNW 16.1 mph 19.6 mph N/A   Overcast
3:15 AM 30.2 °F 20.8 °F 26.6 °F 86% 29.85 in 10.0 mi WNW 11.5 mph 20.7 mph N/A   Overcast
3:35 AM 30.2 °F 19.8 °F 26.6 °F 86% 29.85 in 10.0 mi NW 13.8 mph 21.9 mph N/A   Overcast
3:55 AM 30.2 °F 18.5 °F 24.8 °F 80% 29.84 in 10.0 mi WNW 17.3 mph 23.0 mph N/A   Overcast
4:15 AM 30.2 °F 20.2 °F 24.8 °F 80% 29.83 in 10.0 mi WNW 12.7 mph 21.9 mph N/A   Overcast
4:35 AM 30.2 °F 19.8 °F 24.8 °F 80% 29.83 in 10.0 mi NW 13.8 mph 23.0 mph N/A   Overcast
4:55 AM 30.2 °F 19.3 °F 24.8 °F 80% 29.83 in 10.0 mi WNW 15.0 mph 19.6 mph N/A   Overcast
5:15 AM 30.2 °F 20.8 °F 24.8 °F 80% 29.84 in 10.0 mi WNW 11.5 mph 17.3 mph N/A   Overcast
5:35 AM 30.2 °F 20.8 °F 24.8 °F 80% 29.84 in 10.0 mi West 11.5 mph 18.4 mph N/A   Overcast
5:55 AM 30.2 °F 21.9 °F 24.8 °F 80% 29.85 in 10.0 mi West 9.2 mph - N/A   Overcast
6:15 AM 28.4 °F 17.0 °F 24.8 °F 86% 29.87 in 10.0 mi West 15.0 mph 18.4 mph N/A   Overcast
6:35 AM 28.4 °F 19.1 °F 23.0 °F 80% 29.87 in 10.0 mi West 10.4 mph 16.1 mph N/A   Overcast
6:55 AM 28.4 °F 19.1 °F 23.0 °F 80% 29.88 in 10.0 mi West 10.4 mph 17.3 mph N/A   Overcast
7:15 AM 28.4 °F 18.5 °F 23.0 °F 80% 29.88 in 10.0 mi West 11.5 mph 17.3 mph N/A   Overcast
7:35 AM 28.4 °F 19.1 °F 23.0 °F 80% 29.89 in 10.0 mi WNW 10.4 mph 19.6 mph N/A   Overcast
7:55 AM 28.4 °F 18.0 °F 23.0 °F 80% 29.89 in 10.0 mi WNW 12.7 mph - N/A   Overcast
8:15 AM 28.4 °F 17.0 °F 23.0 °F 80% 29.89 in 10.0 mi West 15.0 mph 18.4 mph N/A   Overcast
8:35 AM 28.4 °F 17.0 °F 23.0 °F 80% 29.89 in 10.0 mi WNW 15.0 mph 18.4 mph N/A   Overcast
8:55 AM 28.4 °F 16.2 °F 23.0 °F 80% 29.89 in 10.0 mi West 17.3 mph - N/A   Overcast
9:15 AM 28.4 °F 17.5 °F 23.0 °F 80% 29.89 in 10.0 mi WNW 13.8 mph 18.4 mph N/A   Overcast
9:35 AM 28.4 °F 17.0 °F 23.0 °F 80% 29.90 in 10.0 mi WNW 15.0 mph 18.4 mph N/A Snow Light Snow
9:55 AM 28.4 °F 16.6 °F 23.0 °F 80% 29.91 in 10.0 mi WNW 16.1 mph 25.3 mph N/A   Overcast
10:15 AM 28.4 °F 18.5 °F 23.0 °F 80% 29.91 in 10.0 mi WNW 11.5 mph 17.3 mph N/A   Overcast
10:35 AM 28.4 °F 18.5 °F 23.0 °F 80% 29.91 in 10.0 mi WNW 11.5 mph 18.4 mph N/A   Overcast
10:55 AM 28.4 °F 18.5 °F 23.0 °F 80% 29.92 in 10.0 mi West 11.5 mph 17.3 mph N/A   Overcast
11:15 AM 28.4 °F 17.0 °F 23.0 °F 80% 29.92 in 10.0 mi WNW 15.0 mph - N/A   Overcast
11:35 AM 28.4 °F 19.1 °F 23.0 °F 80% 29.92 in 10.0 mi West 10.4 mph 16.1 mph N/A   Overcast
11:55 AM 28.4 °F 17.0 °F 23.0 °F 80% 29.93 in 10.0 mi West 15.0 mph 20.7 mph N/A   Overcast
12:15 PM 28.4 °F 18.0 °F 23.0 °F 80% 29.93 in 10.0 mi WNW 12.7 mph - N/A   Overcast
12:35 PM 30.2 °F 19.8 °F 23.0 °F 75% 29.92 in 10.0 mi West 13.8 mph - N/A   Overcast
12:55 PM 30.2 °F 20.2 °F 23.0 °F 75% 29.92 in 10.0 mi West 12.7 mph - N/A   Overcast
1:15 PM 30.2 °F 19.8 °F 24.8 °F 80% 29.92 in 10.0 mi West 13.8 mph 19.6 mph N/A   Overcast
1:35 PM 32.0 °F 21.2 °F 24.8 °F 75% 29.92 in 10.0 mi WNW 16.1 mph 20.7 mph N/A   Overcast
1:55 PM 32.0 °F 22.5 °F 26.6 °F 80% 29.92 in 10.0 mi West 12.7 mph 16.1 mph N/A   Overcast
2:15 PM 32.0 °F 21.6 °F 24.8 °F 75% 29.92 in 10.0 mi WNW 15.0 mph 19.6 mph N/A   Overcast
2:35 PM 32.0 °F 22.5 °F 24.8 °F 75% 29.92 in 10.0 mi West 12.7 mph 17.3 mph N/A   Unknown
3:15 PM 32.0 °F 22.5 °F 23.0 °F 69% 29.92 in 10.0 mi West 12.7 mph 18.4 mph N/A   Overcast
3:35 PM 32.0 °F 23.0 °F 23.0 °F 69% 29.91 in 10.0 mi West 11.5 mph 21.9 mph N/A   Overcast
3:55 PM 32.0 °F 22.5 °F 23.0 °F 69% 29.92 in 10.0 mi WNW 12.7 mph 16.1 mph N/A   Overcast
4:15 PM 32.0 °F 23.0 °F 23.0 °F 69% 29.91 in 10.0 mi West 11.5 mph - N/A   Overcast
4:35 PM 32.0 °F 22.5 °F 23.0 °F 69% 29.91 in 10.0 mi West 12.7 mph - N/A   Mostly Cloudy
4:55 PM 32.0 °F 23.0 °F 24.8 °F 75% 29.91 in 10.0 mi West 11.5 mph - N/A   Mostly Cloudy
5:15 PM 33.8 °F 25.3 °F 23.0 °F 65% 29.92 in 10.0 mi West 11.5 mph 16.1 mph N/A   Scattered Clouds
5:35 PM 33.8 °F 27.0 °F 23.0 °F 65% 29.92 in 10.0 mi West 8.1 mph 17.3 mph N/A   Clear
6:15 PM 33.8 °F 26.4 °F 23.0 °F 65% 29.93 in 10.0 mi West 9.2 mph - N/A   Clear
6:35 PM 33.8 °F 26.4 °F 23.0 °F 65% 29.94 in 10.0 mi West 9.2 mph - N/A   Clear
6:55 PM 33.8 °F 28.6 °F 23.0 °F 65% 29.94 in 10.0 mi West 5.8 mph - N/A   Clear
7:15 PM 33.8 °F 28.6 °F 23.0 °F 65% 29.94 in 10.0 mi West 5.8 mph - N/A   Clear
7:35 PM 33.8 °F 30.8 °F 23.0 °F 65% 29.95 in 10.0 mi West 3.5 mph - N/A   Clear
7:55 PM 32.0 °F - 23.0 °F 69% 29.97 in 10.0 mi Calm Calm - N/A   Clear
8:15 PM 32.0 °F - 23.0 °F 69% 29.98 in 10.0 mi Calm Calm - N/A   Clear
8:35 PM 32.0 °F - 24.8 °F 75% 29.97 in 10.0 mi Calm Calm - N/A   Clear
8:55 PM 32.0 °F - 26.6 °F 80% 29.97 in 10.0 mi Calm Calm - N/A   Clear
9:15 PM 32.0 °F - 26.6 °F 80% 29.98 in 10.0 mi Calm Calm - N/A   Clear
9:35 PM 30.2 °F - 28.4 °F 93% 29.98 in 10.0 mi Calm Calm - N/A   Clear
10:15 PM 30.2 °F - 28.4 °F 93% 29.98 in 10.0 mi Calm Calm - N/A   Clear
10:35 PM 30.2 °F - 26.6 °F 86% 29.99 in 10.0 mi Calm Calm - N/A   Clear
11:15 PM 30.2 °F - 26.6 °F 86% 30.00 in 10.0 mi Calm Calm - N/A   Clear
11:35 PM 28.4 °F - 28.4 °F 100% 30.00 in 10.0 mi Calm Calm - N/A   Clear